Wind_Speed
24 24 24 25 26 25 23 22 22 21 21 21 20 20 20 20 20 20 20 20 20 20 20 19 19 18 18 18 18 18 18 19 19 18 18 17 17 16 16 16 15 14 14 13 12 11 11 10 10
25 25 26 27 27 25 23 23 23 22 22 23 23 22 21 21 20 20 20 21 21 21 21 21 21 20 19 19 19 19 19 19 20 19 19 19 19 18 18 17 16 16 15 15 14 13 12 12 11
26 26 27 28 27 25 24 24 24 24 24 25 24 24 22 22 22 22 22 22 22 22 23 23 22 22 21 21 21 21 21 20 20 20 20 20 21 20 19 19 18 17 17 17 16 15 14 14 13
26 27 28 29 27 25 25 26 26 26 26 26 25 25 24 23 23 23 24 23 23 23 23 24 23 23 23 23 22 22 22 22 21 20 20 20 21 21 20 20 20 19 19 18 18 17 16 16 15
26 27 28 28 26 25 26 26 27 27 27 26 26 26 25 24 24 24 24 25 25 24 25 25 25 24 24 24 24 23 23 23 23 22 22 22 21 22 22 20 21 21 21 20 19 18 18 17 17
27 27 28 27 27 26 27 27 28 28 28 28 27 27 26 25 25 26 26 26 26 25 25 26 26 26 26 26 25 25 24 24 24 24 24 24 23 23 23 23 22 22 22 21 21 20 19 19 19
28 28 28 27 27 28 28 28 29 29 29 29 29 28 27 27 27 27 27 28 28 27 27 27 27 27 27 27 27 27 26 26 26 26 25 25 25 24 24 23 23 22 22 22 22 22 21 21 21
28 30 30 29 28 28 28 28 28 30 30 31 31 30 29 29 29 29 29 30 30 30 29 28 28 28 28 28 28 28 28 27 27 27 26 26 27 26 25 25 24 24 23 23 23 23 23 23 23
29 31 30 30 30 30 30 30 30 31 32 32 32 32 31 31 31 31 31 31 31 31 31 31 30 30 30 30 29 29 29 29 28 28 28 28 28 27 27 27 26 26 25 24 25 25 25 25 24
30 31 30 30 31 31 32 31 31 32 33 33 33 33 33 33 33 33 33 33 33 33 33 33 32 31 31 32 31 31 31 31 30 30 29 30 30 29 28 28 28 28 28 27 26 26 26 26 25
30 30 30 31 32 33 34 33 33 34 34 35 35 35 36 35 35 35 35 35 35 35 36 35 35 34 33 33 33 33 33 32 32 32 31 32 32 31 30 30 30 29 29 29 28 28 27 27 27
31 31 31 32 33 34 35 35 35 35 36 36 37 37 37 37 37 36 36 36 37 37 37 38 37 37 36 35 35 35 35 35 34 34 34 34 33 33 32 32 32 31 31 30 30 31 30 29 28
30 31 32 33 34 35 35 36 36 36 37 38 38 39 38 38 38 37 37 37 37 37 38 38 38 39 39 38 37 37 37 37 37 37 36 36 35 34 33 33 33 33 33 32 32 32 32 31 31
30 32 33 34 35 35 36 37 37 37 38 39 39 39 39 39 39 39 38 38 38 38 39 40 40 39 40 40 39 39 40 39 39 38 38 38 37 37 36 35 34 34 34 34 33 33 33 33 33
32 33 33 34 35 36 37 37 38 38 39 40 40 40 40 40 40 40 40 40 40 40 41 42 41 41 41 41 41 41 41 41 41 40 39 39 39 39 38 37 36 36 36 36 35 35 34 34 34
32 33 33 33 35 36 37 38 38 38 39 39 40 40 41 41 41 41 41 41 41 42 42 43 43 42 43 43 42 42 42 42 42 42 41 41 41 40 40 40 39 38 38 38 37 37 37 36 36
31 33 33 33 34 35 37 37 37 38 38 38 39 39 40 41 42 42 42 42 42 43 44 44 44 44 44 44 44 44 44 44 43 43 43 42 42 42 41 41 41 41 40 39 39 39 39 39 38
31 32 33 33 34 35 36 37 37 38 39 38 39 39 40 41 42 42 43 43 43 43 44 45 45 46 46 46 45 46 46 46 46 45 45 45 44 44 44 43 42 43 42 41 41 41 41 41 41
30 31 32 32 34 35 35 36 37 38 38 37 38 39 40 41 42 42 43 43 44 44 44 45 45 46 47 47 47 47 47 47 47 47 47 47 46 46 46 46 44 45 44 43 42 42 42 42 42
29 30 31 32 34 36 36 36 36 38 38 38 38 39 40 41 42 42 43 42 43 44 45 45 46 46 46 47 47 48 49 49 49 49 49 49 49 49 49 49 48 48 47 46 45 44 44 44 44
29 30 30 32 34 36 36 36 36 37 38 39 39 39 40 40 41 42 43 43 43 43 44 45 46 47 47 47 48 48 49 50 50 51 51 51 51 51 50 50 50 50 50 49 48 47 47 47 47
29 30 31 32 33 34 36 37 35 36 37 38 38 39 39 40 41 42 43 43 43 43 43 44 46 47 48 48 49 49 50 50 51 52 52 53 53 52 52 52 52 51 51 50 50 49 48 48 48
29 29 30 31 32 33 34 36 35 35 36 36 37 38 38 39 40 42 42 43 43 44 44 44 45 47 47 48 49 50 51 51 52 52 53 53 53 53 53 54 53 53 52 52 52 52 51 50 50
29 30 31 32 32 34 33 35 35 35 35 35 35 36 37 39 39 40 41 42 43 44 45 46 46 47 48 48 49 50 51 52 52 53 53 54 54 55 55 55 54 54 54 54 54 53 53 53 53
28 29 31 33 34 34 33 35 35 34 34 34 35 36 36 37 37 39 40 41 42 43 45 46 47 48 48 49 50 50 51 52 52 53 54 54 55 55 56 56 56 56 56 57 56 55 55 55 55
28 29 30 32 34 34 33 34 34 34 33 33 34 35 36 37 37 38 39 41 43 44 44 45 47 48 49 50 51 51 51 52 53 54 55 55 56 56 57 58 58 59 58 58 58 57 57 56 56
28 28 29 31 34 34 34 34 34 33 33 33 33 34 36 37 38 39 40 41 41 43 44 45 46 48 49 50 51 52 53 53 54 55 56 57 57 58 59 59 59 60 60 60 59 59 59 59 58
28 28 29 30 32 34 34 33 33 33 32 33 33 34 35 37 38 40 41 42 42 43 44 45 46 48 49 51 52 53 54 54 55 56 57 58 59 60 60 61 61 61 62 62 62 61 60 60 60
28 28 30 31 33 34 35 34 33 33 33 33 33 34 35 36 37 38 40 41 42 44 45 46 47 48 49 51 53 54 55 56 57 57 58 59 60 61 62 62 63 63 63 63 64 63 63 63 62
29 29 30 31 33 34 35 35 33 34 34 34 34 35 35 37 38 38 39 40 41 43 44 45 46 47 48 50 52 53 55 57 57 58 58 58 60 61 62 63 63 63 64 64 65 65 64 65 65
Wind_Direction
244 245 244 243 243 244 244 243 243 243 244 245 246 248 249 250 249 249 247 245 245 245 245 246 246 245 243 241 241 242 240 236 234 234 234 234 234 233 233 231 230 228 227 226 226 226 224 223 223
242 243 243 243 244 245 244 244 245 246 246 247 248 249 251 251 249 248 246 245 245 245 245 245 245 244 243 242 241 242 242 239 235 234 234 234 234 235 234 233 233 231 230 229 230 231 231 229 230
241 242 243 245 246 246 245 245 245 245 246 247 249 250 251 252 250 249 247 246 244 245 245 244 244 244 243 243 243 243 243 241 238 235 236 236 234 234 234 233 233 233 231 231 232 233 235 234 236
243 242 244 245 246 246 246 246 246 246 246 248 249 251 251 253 253 250 248 246 245 244 244 244 244 244 244 243 244 244 244 242 241 238 236 237 236 235 236 236 233 233 233 232 233 234 237 237 240
245 244 244 245 246 246 247 247 248 247 247 248 250 250 251 252 253 250 247 246 245 244 244 244 243 243 243 244 245 244 244 244 243 241 238 238 238 237 238 239 238 237 236 236 236 235 237 238 240
248 248 248 248 248 247 247 248 249 249 248 249 250 252 252 252 253 251 247 245 244 244 244 244 244 243 243 244 244 243 243 243 243 242 241 239 238 239 240 241 242 240 239 238 239 238 238 239 241
250 250 250 250 249 248 248 248 249 250 250 250 250 250 250 250 252 252 248 246 244 243 244 244 243 243 243 244 243 242 242 242 242 242 242 240 239 239 241 242 242 242 242 241 241 242 242 242 243
252 252 250 250 250 250 249 248 248 249 250 251 251 251 250 251 251 251 250 247 245 243 243 243 243 243 243 244 243 242 241 241 241 241 242 240 240 241 241 243 243 243 244 243 244 245 245 245 246
252 252 252 251 250 250 250 248 247 248 249 250 252 253 252 252 251 251 250 249 247 244 243 243 244 245 245 245 243 241 242 242 241 242 242 241 241 243 242 243 244 244 245 246 246 246 247 247 248
254 254 253 252 251 251 251 250 248 248 250 251 252 253 253 252 252 251 250 249 248 245 244 243 242 243 244 245 245 243 242 242 242 242 243 243 243 244 244 243 245 246 247 247 247 246 246 247 247
255 254 253 252 252 252 252 252 250 249 250 251 252 254 254 253 251 250 250 250 248 246 244 244 243 243 243 244 245 245 244 243 242 242 243 244 245 245 245 245 245 247 248 248 248 247 247 247 248
255 254 254 253 253 252 252 253 252 251 252 252 253 254 254 254 252 250 250 249 249 248 246 245 244 243 243 244 245 245 245 244 243 243 243 244 244 245 246 247 246 247 247 248 248 248 247 248 249
256 255 255 254 254 254 254 253 253 253 253 254 254 254 254 254 253 251 250 249 248 248 247 246 245 244 244 244 245 245 245 245 245 245 244 244 245 246 246 246 246 246 247 248 248 248 248 249 250
258 257 255 255 255 255 255 255 254 254 255 255 256 255 255 254 254 253 251 249 248 248 246 245 246 246 245 245 246 245 245 245 244 244 244 245 245 245 246 246 247 247 247 248 248 248 249 250 251
259 257 256 256 255 256 256 256 256 256 255 256 256 255 255 254 254 254 252 251 249 248 247 246 246 247 246 247 247 247 246 245 244 244 244 245 245 245 245 246 246 247 248 248 249 249 249 250 252
260 258 257 257 258 257 257 257 258 258 257 256 256 255 255 254 254 254 253 252 250 249 248 247 247 247 247 247 247 247 247 246 245 245 245 245 245 245 246 246 247 248 249 250 250 251 251 251 252
262 261 260 259 259 259 258 258 258 259 259 258 256 255 255 254 254 254 254 253 252 250 248 247 247 248 248 247 248 247 246 245 245 245 245 245 246 246 246 247 248 248 249 250 250 252 252 253 253
265 263 262 262 262 261 261 260 260 260 259 258 257 255 254 254 255 254 254 253 252 251 249 249 248 248 248 248 248 247 246 245 246 246 245 245 246 247 248 248 249 250 250 250 251 252 252 253 253
267 266 265 264 264 264 263 262 261 260 259 258 258 256 255 255 255 255 255 253 252 250 250 250 249 249 248 248 248 247 245 245 246 246 246 246 246 247 248 249 250 250 251 251 252 253 254 254 254
268 267 267 266 265 265 264 264 262 262 261 260 259 258 256 256 256 256 255 253 252 251 250 250 250 249 249 249 248 247 246 245 245 246 246 246 247 247 247 248 250 251 252 253 254 254 255 255 255
270 269 269 268 266 265 265 265 264 263 263 261 260 259 257 256 256 256 255 255 254 253 251 250 250 249 249 249 249 248 248 247 246 246 246 246 246 247 247 248 250 251 251 252 253 254 254 255 256
272 272 271 270 269 268 267 267 265 264 263 262 261 259 259 258 256 256 256 256 255 254 253 252 251 250 249 249 249 249 249 248 248 247 247 247 247 247 247 248 249 251 251 252 253 254 254 255 256
275 274 272 271 271 270 269 270 267 265 264 264 263 261 259 258 257 256 257 256 255 253 253 253 252 250 250 250 250 250 250 250 249 248 248 248 248 248 248 249 250 251 251 252 253 253 255 256 257
276 275 273 272 272 271 271 271 269 268 267 266 264 263 261 260 259 258 258 256 255 255 254 254 253 252 251 251 251 251 251 250 250 249 249 248 248 249 249 250 251 252 253 253 253 254 255 255 256
277 275 274 273 272 273 273 271 271 269 268 266 264 263 262 261 260 259 258 257 257 257 256 254 253 252 251 251 251 251 251 251 251 250 250 249 249 250 250 250 252 252 253 254 254 254 255 256 256
279 277 275 276 276 276 274 273 272 271 269 268 265 262 262 261 261 260 259 258 258 257 257 256 255 253 252 252 251 251 251 251 251 251 250 250 250 250 250 251 252 253 253 254 255 255 256 257 257
279 276 276 277 277 277 277 276 276 274 272 270 267 265 263 262 262 261 260 260 259 258 257 257 256 255 253 253 252 252 252 252 252 252 252 251 250 251 251 252 252 253 254 254 255 256 257 258 258
279 278 275 275 277 277 278 278 278 276 275 273 271 269 267 266 265 264 263 261 260 259 259 258 258 257 255 254 254 254 253 253 253 253 253 253 252 252 252 253 253 254 254 255 256 257 257 258 258
279 277 275 274 274 276 278 279 279 277 276 274 273 271 269 268 268 267 265 263 262 261 261 260 259 258 257 256 255 255 254 254 255 255 255 255 254 253 253 253 254 254 255 256 256 257 257 258 258
279 278 277 276 274 273 275 277 278 277 276 275 273 271 270 270 269 268 266 265 264 263 262 262 261 260 259 258 257 256 256 255 255 255 255 255 255 254 253 253 254 254 256 257 257 257 258 258 259
Height
5801 5802 5804 5805 5807 5808 5810 5812 5813 5815 5816 5817 5818 5819 5820 5822 5824 5827 5826 5825 5826 5827 5828 5829 5831 5832 5833 5834 5835 5836 5837 5838 5839 5840 5841 5843 5844 5845 5846 5847 5848 5848 5849 5850 5851 5852 5853 5854 5854
5796 5798 5799 5800 5801 5803 5806 5808 5810 5811 5812 5812 5813 5815 5816 5817 5819 5820 5821 5821 5822 5824 5825 5826 5827 5828 5830 5831 5832 5833 5834 5835 5836 5837 5839 5840 5841 5842 5843 5844 5845 5847 5848 5849 5850 5850 5851 5852 5853
5790 5792 5794 5795 5796 5799 5802 5804 5805 5806 5807 5808 5809 5810 5812 5813 5814 5815 5817 5818 5819 5820 5821 5822 5823 5824 5826 5827 5828 5829 5831 5832 5833 5834 5835 5837 5838 5839 5840 5842 5843 5844 5845 5846 5848 5849 5849 5850 5851
5785 5787 5788 5790 5791 5795 5797 5799 5800 5801 5802 5803 5804 5806 5807 5809 5810 5811 5812 5813 5814 5816 5817 5818 5819 5820 5822 5823 5824 5826 5827 5828 5829 5831 5832 5834 5835 5836 5837 5839 5840 5841 5842 5844 5845 5846 5847 5848 5849
5779 5781 5782 5784 5786 5789 5791 5793 5794 5796 5797 5798 5799 5800 5802 5803 5804 5805 5807 5808 5810 5811 5812 5813 5815 5816 5817 5819 5820 5821 5823 5824 5826 5827 5828 5830 5831 5833 5834 5836 5837 5838 5839 5840 5842 5843 5844 5845 5846
5774 5775 5777 5779 5781 5784 5786 5787 5789 5790 5792 5793 5794 5795 5796 5798 5799 5800 5801 5803 5804 5806 5807 5809 5810 5811 5813 5814 5816 5817 5819 5820 5821 5823 5825 5826 5828 5829 5831 5832 5833 5835 5836 5837 5838 5840 5841 5842 5843
5769 5770 5771 5774 5775 5778 5780 5782 5783 5784 5786 5787 5788 5789 5790 5792 5793 5794 5795 5797 5798 5800 5802 5803 5804 5806 5807 5809 5811 5813 5814 5816 5817 5819 5820 5822 5823 5825 5827 5828 5830 5831 5832 5833 5835 5836 5837 5838 5839
5762 5764 5765 5768 5770 5772 5774 5776 5777 5778 5779 5781 5782 5783 5785 5786 5787 5788 5789 5791 5792 5794 5796 5797 5799 5800 5802 5804 5805 5807 5809 5811 5812 5814 5815 5817 5819 5821 5822 5824 5825 5827 5828 5829 5831 5832 5833 5834 5835
5756 5758 5759 5762 5764 5766 5768 5769 5770 5771 5772 5774 5775 5777 5779 5780 5781 5782 5783 5784 5786 5787 5789 5791 5793 5795 5796 5798 5800 5802 5803 5805 5807 5808 5810 5812 5814 5816 5817 5819 5820 5822 5823 5824 5826 5827 5828 5829 5831
5749 5751 5754 5756 5757 5759 5760 5762 5763 5764 5765 5767 5768 5769 5771 5772 5773 5775 5776 5777 5779 5780 5782 5784 5786 5788 5790 5792 5793 5796 5797 5799 5801 5803 5805 5807 5808 5810 5812 5814 5815 5816 5818 5819 5821 5822 5823 5824 5826
5742 5744 5747 5748 5750 5751 5752 5754 5755 5756 5758 5759 5761 5762 5763 5764 5765 5767 5768 5769 5771 5772 5774 5776 5778 5780 5782 5784 5787 5789 5791 5793 5795 5797 5799 5801 5802 5804 5806 5808 5809 5811 5812 5814 5815 5817 5818 5819 5820
5735 5737 5739 5740 5741 5743 5744 5745 5747 5748 5750 5750 5751 5753 5754 5755 5756 5758 5759 5761 5762 5764 5766 5768 5770 5772 5774 5776 5779 5781 5783 5786 5788 5790 5792 5794 5796 5798 5800 5801 5803 5805 5806 5808 5809 5810 5812 5813 5815
5727 5729 5730 5732 5733 5734 5735 5737 5738 5740 5741 5741 5742 5743 5744 5746 5747 5748 5750 5751 5753 5755 5757 5759 5761 5763 5766 5768 5770 5773 5775 5778 5780 5782 5784 5787 5789 5791 5793 5794 5796 5798 5799 5801 5803 5804 5806 5807 5808
5720 5721 5722 5723 5724 5725 5726 5728 5729 5731 5731 5731 5732 5733 5735 5736 5737 5739 5740 5742 5744 5745 5747 5749 5752 5754 5757 5759 5761 5764 5767 5769 5772 5774 5776 5778 5781 5783 5785 5787 5789 5790 5792 5794 5796 5797 5799 5800 5801
5711 5712 5713 5714 5715 5716 5717 5718 5720 5721 5721 5722 5723 5723 5725 5726 5727 5729 5730 5732 5734 5736 5738 5740 5742 5745 5747 5750 5752 5754 5757 5760 5762 5765 5767 5770 5772 5774 5777 5779 5781 5783 5784 5786 5788 5790 5791 5793 5794
5702 5703 5705 5706 5706 5707 5708 5710 5711 5710 5711 5712 5713 5713 5714 5716 5717 5718 5720 5722 5723 5725 5727 5730 5732 5735 5737 5740 5742 5744 5747 5750 5753 5755 5758 5761 5763 5766 5768 5770 5772 5774 5776 5778 5780 5782 5783 5785 5786
5693 5694 5696 5698 5697 5697 5698 5699 5701 5700 5701 5702 5703 5703 5704 5705 5706 5708 5709 5711 5712 5714 5717 5719 5722 5724 5727 5729 5732 5734 5737 5740 5743 5745 5748 5751 5754 5756 5759 5761 5763 5765 5767 5769 5771 5773 5774 5776 5778
5685 5686 5687 5688 5688 5688 5688 5689 5690 5690 5691 5691 5692 5693 5694 5694 5696 5697 5698 5699 5701 5703 5705 5708 5711 5713 5716 5718 5721 5723 5726 5729 5732 5735 5738 5741 5744 5746 5749 5751 5753 5755 5757 5759 5761 5763 5765 5767 5768
5677 5677 5678 5679 5678 5678 5678 5679 5680 5680 5680 5681 5682 5683 5683 5684 5685 5685 5687 5688 5690 5692 5694 5696 5699 5701 5704 5707 5709 5712 5715 5718 5721 5724 5727 5730 5733 5736 5738 5741 5743 5745 5747 5749 5751 5753 5755 5757 5758
5668 5668 5669 5669 5668 5668 5668 5669 5670 5669 5670 5671 5671 5672 5672 5673 5673 5674 5675 5676 5678 5680 5683 5685 5687 5689 5692 5694 5697 5700 5703 5706 5709 5712 5715 5718 5722 5724 5727 5730 5732 5734 5736 5739 5740 5742 5744 5746 5748
5659 5659 5660 5659 5658 5658 5658 5659 5660 5659 5659 5660 5661 5661 5661 5662 5662 5663 5664 5665 5667 5669 5671 5673 5675 5678 5680 5682 5685 5688 5691 5694 5697 5700 5703 5706 5709 5712 5715 5718 5720 5722 5725 5727 5729 5731 5733 5735 5736
5652 5651 5650 5649 5648 5648 5648 5647 5650 5649 5649 5649 5650 5650 5650 5651 5651 5652 5653 5654 5656 5657 5659 5661 5663 5665 5668 5670 5672 5675 5678 5681 5685 5687 5690 5693 5696 5700 5702 5705 5708 5710 5712 5714 5717 5719 5721 5722 5724
5644 5642 5641 5640 5639 5638 5638 5637 5639 5639 5639 5639 5639 5639 5639 5640 5641 5641 5642 5644 5645 5646 5648 5649 5651 5653 5656 5658 5660 5662 5665 5668 5671 5674 5677 5680 5683 5686 5689 5692 5695 5697 5699 5702 5704 5706 5708 5710 5712
5635 5634 5632 5630 5629 5628 5629 5627 5627 5628 5629 5629 5628 5628 5628 5629 5630 5630 5631 5632 5633 5634 5636 5637 5639 5641 5643 5645 5647 5649 5652 5654 5657 5660 5663 5666 5669 5673 5676 5678 5681 5683 5686 5688 5690 5693 5695 5697 5698
5626 5625 5623 5621 5619 5619 5619 5617 5618 5618 5618 5618 5618 5617 5617 5618 5619 5619 5620 5621 5622 5622 5623 5625 5626 5628 5630 5632 5634 5636 5638 5640 5643 5646 5649 5653 5656 5658 5661 5664 5667 5669 5671 5674 5676 5678 5681 5682 5684
5618 5616 5615 5613 5610 5610 5609 5607 5609 5608 5608 5607 5607 5607 5607 5607 5607 5608 5608 5609 5609 5610 5611 5612 5613 5615 5617 5619 5621 5623 5625 5627 5629 5632 5635 5638 5641 5644 5646 5649 5652 5654 5657 5659 5661 5664 5666 5668 5670
5609 5607 5606 5604 5601 5600 5599 5598 5599 5598 5598 5597 5597 5597 5596 5596 5596 5596 5596 5597 5597 5597 5598 5599 5600 5602 5603 5605 5607 5609 5611 5613 5615 5617 5620 5623 5625 5628 5631 5634 5636 5639 5641 5644 5646 5649 5651 5653 5655
5601 5599 5597 5594 5591 5590 5589 5589 5590 5589 5588 5588 5587 5586 5586 5585 5585 5585 5585 5585 5585 5585 5585 5586 5587 5588 5590 5591 5593 5595 5596 5598 5600 5602 5604 5607 5609 5612 5615 5617 5620 5623 5625 5628 5630 5633 5635 5637 5639
5592 5591 5587 5585 5583 5581 5579 5582 5580 5579 5578 5577 5576 5575 5575 5574 5574 5573 5573 5572 5572 5572 5572 5573 5574 5575 5576 5577 5578 5580 5581 5583 5585 5587 5589 5591 5593 5595 5598 5601 5603 5606 5609 5611 5613 5616 5618 5621 5623
5583 5581 5579 5577 5575 5572 5570 5573 5570 5569 5567 5567 5566 5565 5564 5563 5563 5562 5561 5560 5560 5560 5560 5560 5560 5561 5561 5562 5563 5565 5566 5567 5569 5570 5572 5574 5576 5578 5580 5583 5586 5589 5591 5593 5596 5599 5601 5604 5606